Regional Weather Roundup
Issued by NWS Sterling, VA

Home | Current Version | Previous Version | Graphics & Text | Print | Product List | Glossary On
Versions: 1 2 3 4 5 6 7 8 9 10 11 12 13 14 15 16 17 18 19 20 21 22 23 24 25 26 27 28 29 30 31 32 33 34 35 36 37 38 39 40 41 42 43 44 45 46 47 48 49 50
000
ASUS41 KLWX 251810
RWRLWX

REGIONAL WEATHER ROUNDUP
NATIONAL WEATHER SERVICE BALTIMORE MD/WASHINGTON DC
200 PM EDT MON MAY 25 2015

Note: "FAIR" indicates few or no clouds below 12,000 feet
with no significant weather and/or obstructions to visibility.
 TC=TEMPERATURE CELSIUS

 * =Non NWS site. Station does not report precipitation (e.g. rain,
    snow, etc.), thunder, or fog.

DCZ001-MDZ009-015-VAZ040>042-051-053>054-251900-
WASHINGTON METRO

CITY           SKY/WX    TMP DP  RH WIND       PRES   REMARKS
WASHINGTON NAT PTSUNNY   84  60  44 S16G25    30.24F
DULLES         PTSUNNY   82  59  45 S17G26    30.22F
ANDREWS AFB    MOSUNNY   81  60  49 S20G28    30.24F
FT BELVOIR     SUNNY     82  59  45 S10G23    30.24F
QUANTICO       MOSUNNY   82  57  42 SW12G23   30.25F
COLLEGE PARK*  SUNNY     82  57  42 S7G18     30.23F
LEESBURG*      SUNNY     86  61  42 S17G28    30.22F
MANASSAS*      SUNNY     82  61  47 S17G23    30.23F
GAITHERSBURG*  MOSUNNY   82  59  44 S10G21    30.26F

$$

MDZ006>007-011-014-251900-
BALTIMORE METRO

CITY           SKY/WX    TMP DP  RH WIND       PRES   REMARKS
BWI AIRPORT    PTSUNNY   82  57  42 S15G24    30.22F
MD SCIENCE CTR   N/A     84  56  38 MISG      30.21F
MARTIN STATE   MOSUNNY   81  66  61 SE16      30.24F
ANNAPOLIS      SUNNY     80  59  48 SE10G18   30.23F
FORT MEADE*    SUNNY     81  57  44 SW12G20   30.25F

$$

MDZ012-015-019>023-251900-
MARYLAND EASTERN SHORE

CITY           SKY/WX    TMP DP  RH WIND       PRES   REMARKS
OCEAN CITY     SUNNY     72  63  73 S9G17     30.31F
SALISBURY      MOSUNNY   80  57  45 S17G25    30.29F
BAY BRIDGE AP*   N/A    N/A N/A N/A S15G22    30.25F
CAMBRIDGE*     SUNNY     81  55  41 SW9G17    30.28S
EASTON*        MOSUNNY   82  61  47 W14G23    30.30F

$$

MDZ017>025-251900-
SOUTHERN MARYLAND

CITY           SKY/WX    TMP DP  RH WIND       PRES   REMARKS
PATUXENT RIVER SUNNY     83  57  41 S15G24    30.27F
ST INIGOES     SUNNY     82  60  47 S12       30.27F
LEONARDTOWN*   MOSUNNY   79  55  44 S8G18     30.29F

$$

MDZ003>005-251900-
NORTH CENTRAL MARYLAND

CITY           SKY/WX    TMP DP  RH WIND       PRES   REMARKS
FREDERICK*     SUNNY     84  61  45 SW16      30.23
HAGERSTOWN APT SUNNY     83  57  41 S17       30.19F
WESTMINSTER*   MOSUNNY   84  57  39 S14G20    30.22F

$$

MDZ501>502-251900-
WESTERN MARYLAND

CITY           SKY/WX    TMP DP  RH WIND       PRES   REMARKS
OAKLAND*       MOSUNNY   75  54  46 W6        30.28F
CUMBERLAND*    MOSUNNY   86  54  32 S9        30.21F

$$

VAZ025>031-251900-
SHENANDOAH VALLEY

CITY           SKY/WX    TMP DP  RH WIND       PRES   REMARKS
WINCHESTER*    SUNNY     86  46  25 S13G22    30.21F
FRONT ROYAL*   FAIR      81  57  44 SW9       30.20F
LURAY*         FAIR      82  61  47 S10G16    30.22F
NEW MARKET*    FAIR      82  55  39 SW16G26   30.21F
STAUNTON*      MOSUNNY   83  55  38 SW13G20   30.27F
WAYNESBORO*    MOCLDY    77  58  52 S8G22     30.27F

$$

WVZ021-048>050-054>055-251900-
EASTERN WEST VIRGINIA PANHANDLE

CITY           SKY/WX    TMP DP  RH WIND       PRES   REMARKS
MARTINSBURG    MOSUNNY   82  59  45 S10       30.20F
PETERSBURG*    SUNNY     84  51  31 S7        30.19F

$$

VAZ036>039-050-251900-
CENTRAL FOOTHILLS

CITY           SKY/WX    TMP DP  RH WIND       PRES   REMARKS
CHARLOTTESVILL MOSUNNY   81  57  43 S20G28    30.25F
CULPEPER*      MOSUNNY   81  59  48 S10G20    30.24F
ORANGE*        MOSUNNY   82  59  44 S15G26    30.27F
GORDONSVILLE*  FAIR      81  60  48 SW17G23   30.25F
WARRENTON*     FAIR      83  64  51 SW8G20    30.23F

$$

VAZ055>057-251900-
NORTH AND CENTRAL PIEDMONT

CITY           SKY/WX    TMP DP  RH WIND       PRES   REMARKS
FREDERICKSBRG* SUNNY     84  59  41 S15       30.25F
STAFFORD*      MOSUNNY   82  55  39 SW12      30.29F

$$

NCZ024-NYZ072-PAZ021-071-VAZ022-071-251900-
OTHER REGIONAL OBSERVATIONS

CITY           SKY/WX    TMP DP  RH WIND       PRES   REMARKS
NEW YORK CITY  SUNNY     85  58  39 MISG      30.23F
PHILADELPHIA   MOSUNNY   86  54  33 SW17      30.22F
PITTSBURGH     PTSUNNY   81  56  42 SW8       30.16F
ROANOKE        PTSUNNY   81  57  43 SW13      30.29F
RICHMOND       PTSUNNY   82  58  43 S14G22    30.28F
RALEIGH        MOSUNNY   82  56  40 S9        30.31F

$$

ANZ530>537-251900-
MARINE OBSERVATIONS

STATION/POSITION TIME  TEMP    WIND        PRES
                       AIR SEA DIR/SP/G
                 (UTC) (F)     (DEG/KT/KT) (MB)
THOMAS PT LIGHT  1800   72 67  170/ 18/ 20 1024.5F
BALT KEY BRIDGE  1700   79     180/ 11/ 13 1023.5F
LEWISETTA        1700   78 72              1025.5F
SOLOMONS ISLAND  1700      69                N/A
PINEY POINT      1700          240/ 13/ 17   N/A

$$



USA.gov is the U.S. government's official web portal to all federal, state and local government web resources and services.